�������l�o���
Date,Time,MP-1(��Sv/h),MP-2(��Sv/h),MP-3(��Sv/h),MP-4(��Sv/h),MP-5(��Sv/h),MP-6(��Sv/h),MP-7(��Sv/h),MP-8(��Sv/h),����,����(m/s),���J
2020/06/02,00:00,0.708,1.021,0.652,1.234,0.888,0.405,0.698,0.654,��,7.9,��
2020/06/02,00:10,0.707,1.024,0.652,1.236,0.888,0.406,0.696,0.654,��,7.8,��
2020/06/02,00:20,0.706,1.019,0.653,1.236,0.888,0.403,0.697,0.654,��,7.9,��
2020/06/02,00:30,0.708,1.022,0.652,1.234,0.886,0.404,0.698,0.653,��,7.8,��
2020/06/02,00:40,0.707,1.022,0.653,1.237,0.886,0.405,0.697,0.652,��,8.3,��
2020/06/02,00:50,0.708,1.022,0.652,1.234,0.885,0.406,0.696,0.656,��,10.5,��
2020/06/02,01:00,0.709,1.023,0.652,1.234,0.886,0.403,0.698,0.655,��,10.6,��
2020/06/02,01:10,0.707,1.019,0.652,1.237,0.885,0.404,0.697,0.653,��쐼,10.2,��
2020/06/02,01:20,0.707,1.021,0.653,1.237,0.886,0.405,0.697,0.655,��쐼,10.7,��
2020/06/02,01:30,0.707,1.020,0.653,1.235,0.886,0.403,0.696,0.655,��쐼,8.8,��
2020/06/02,01:40,0.709,1.021,0.654,1.234,0.889,0.405,0.698,0.655,��,7.6,��
2020/06/02,01:50,0.708,1.022,0.653,1.235,0.887,0.406,0.696,0.654,��쐼,6.0,��
2020/06/02,02:00,0.707,1.022,0.653,1.234,0.887,0.405,0.697,0.656,��쐼,7.4,��
2020/06/02,02:10,0.706,1.021,0.653,1.235,0.887,0.405,0.697,0.654,��,7.0,��
2020/06/02,02:20,0.707,1.021,0.653,1.235,0.889,0.405,0.697,0.655,��,6.3,��
2020/06/02,02:30,0.709,1.020,0.654,1.235,0.886,0.404,0.697,0.654,��,6.1,��
2020/06/02,02:40,0.708,1.022,0.653,1.236,0.887,0.405,0.700,0.654,��,5.8,��
2020/06/02,02:50,0.707,1.022,0.652,1.233,0.888,0.405,0.697,0.653,��,6.3,�L
2020/06/02,03:00,0.708,1.022,0.654,1.233,0.887,0.404,0.697,0.654,��,6.0,��
2020/06/02,03:10,0.710,1.021,0.652,1.237,0.885,0.406,0.698,0.655,��,6.3,�L
2020/06/02,03:20,0.709,1.021,0.652,1.235,0.887,0.406,0.698,0.656,��,7.0,�L
2020/06/02,03:30,0.709,1.020,0.654,1.235,0.887,0.406,0.698,0.656,��,7.6,�L
2020/06/02,03:40,0.709,1.022,0.652,1.236,0.885,0.406,0.699,0.655,��,6.8,��
2020/06/02,03:50,0.707,1.021,0.651,1.234,0.888,0.406,0.698,0.655,��,8.8,��
2020/06/02,04:00,0.706,1.021,0.654,1.238,0.888,0.405,0.697,0.657,��,8.9,��
2020/06/02,04:10,0.708,1.019,0.652,1.235,0.887,0.404,0.699,0.655,��,8.7,��
2020/06/02,04:20,0.708,1.024,0.654,1.236,0.884,0.404,0.699,0.656,��,5.0,��
2020/06/02,04:30,0.707,1.024,0.654,1.234,0.887,0.406,0.698,0.655,��,4.4,��
2020/06/02,04:40,0.708,1.023,0.653,1.234,0.889,0.406,0.698,0.654,��,5.7,��
2020/06/02,04:50,0.708,1.025,0.654,1.236,0.887,0.406,0.699,0.654,��,6.2,��
2020/06/02,05:00,0.709,1.025,0.653,1.237,0.886,0.406,0.701,0.655,��,6.7,��
2020/06/02,05:10,0.710,1.024,0.655,1.235,0.887,0.406,0.700,0.655,��,7.3,��
2020/06/02,05:20,0.711,1.023,0.653,1.234,0.889,0.406,0.699,0.654,��,7.2,��
2020/06/02,05:30,0.709,1.025,0.655,1.235,0.889,0.407,0.699,0.656,��,5.3,��
2020/06/02,05:40,0.712,1.023,0.653,1.232,0.889,0.408,0.699,0.656,��,3.9,��
2020/06/02,05:50,0.709,1.024,0.653,1.235,0.889,0.406,0.700,0.655,��,4.2,��
2020/06/02,06:00,0.710,1.021,0.654,1.238,0.889,0.407,0.700,0.654,��,5.0,��
2020/06/02,06:10,0.711,1.021,0.651,1.235,0.891,0.406,0.698,0.655,��,5.3,��
2020/06/02,06:20,0.709,1.021,0.654,1.235,0.889,0.407,0.698,0.657,��,5.2,��
2020/06/02,06:30,0.709,1.021,0.653,1.235,0.887,0.406,0.700,0.653,��,6.1,��
2020/06/02,06:40,0.709,1.021,0.652,1.235,0.888,0.404,0.699,0.654,��,5.4,��
2020/06/02,06:50,0.709,1.019,0.653,1.235,0.889,0.406,0.699,0.653,��,5.5,��
2020/06/02,07:00,0.710,1.020,0.653,1.234,0.888,0.403,0.697,0.655,��,5.9,��
2020/06/02,07:10,0.709,1.022,0.652,1.235,0.889,0.403,0.696,0.654,��,6.0,��
2020/06/02,07:20,0.709,1.021,0.653,1.235,0.887,0.404,0.697,0.654,��,6.7,��
2020/06/02,07:30,0.709,1.023,0.649,1.235,0.890,0.404,0.697,0.653,��,6.9,��
2020/06/02,07:40,0.708,1.023,0.650,1.234,0.890,0.404,0.698,0.653,��,7.0,��
2020/06/02,07:50,0.708,1.022,0.650,1.234,0.888,0.404,0.696,0.651,��쓌,6.5,��
2020/06/02,08:00,0.709,1.023,0.649,1.234,0.890,0.404,0.698,0.652,��,5.8,��
2020/06/02,08:10,0.709,1.021,0.649,1.235,0.887,0.404,0.698,0.652,��,4.9,�L
2020/06/02,08:20,0.711,1.021,0.652,1.233,0.887,0.403,0.696,0.652,��쐼,2.8,�L
2020/06/02,08:30,0.709,1.021,0.653,1.236,0.887,0.404,0.697,0.651,-,CALM,��
2020/06/02,08:40,0.708,1.019,0.653,1.235,0.890,0.404,0.698,0.652,��쓌,1.2,�L
2020/06/02,08:50,0.711,1.021,0.651,1.236,0.891,0.404,0.698,0.652,���쓌,1.2,�L
2020/06/02,09:00,0.711,1.019,0.651,1.235,0.890,0.405,0.698,0.651,���쓌,1.7,�L
2020/06/02,09:10,0.708,1.020,0.652,1.236,0.890,0.405,0.697,0.652,��,2.2,��
2020/06/02,09:20,0.711,1.020,0.653,1.236,0.889,0.404,0.698,0.652,��,1.5,��
2020/06/02,09:30,0.711,1.017,0.653,1.235,0.890,0.404,0.699,0.652,���쓌,2.2,��
2020/06/02,09:40,0.711,1.016,0.650,1.237,0.890,0.405,0.697,0.654,���쓌,2.3,��
2020/06/02,09:50,0.709,1.017,0.654,1.236,0.890,0.404,0.699,0.653,���쓌,3.5,��
2020/06/02,10:00,0.712,1.021,0.653,1.235,0.890,0.404,0.698,0.653,�쓌,4.3,��
2020/06/02,10:10,0.710,1.015,0.652,1.236,0.890,0.404,0.700,0.654,�쓌,6.0,��
2020/06/02,10:20,0.711,1.014,0.653,1.237,0.891,0.403,0.698,0.653,�쓌,7.2,��
2020/06/02,10:30,0.711,1.022,0.653,1.238,0.892,0.403,0.700,0.653,��쓌,9.3,��
2020/06/02,10:40,0.712,1.021,0.654,1.237,0.892,0.404,0.702,0.654,��쓌,8.0,��
2020/06/02,10:50,0.710,1.022,0.652,1.239,0.891,0.403,0.699,0.653,��쓌,8.4,��
2020/06/02,11:00,0.711,1.022,0.653,1.236,0.891,0.403,0.700,0.653,��쓌,8.0,��
2020/06/02,11:10,0.713,1.022,0.653,1.234,0.893,0.404,0.699,0.654,��쓌,8.9,��
2020/06/02,11:20,0.713,1.021,0.655,1.232,0.893,0.404,0.700,0.653,��쓌,8.6,��
2020/06/02,11:30,0.712,1.025,0.654,1.236,0.891,0.404,0.699,0.652,��쓌,10.2,��
2020/06/02,11:40,0.714,1.024,0.654,1.235,0.891,0.404,0.701,0.653,��쓌,9.5,��
2020/06/02,11:50,0.711,1.024,0.654,1.236,0.892,0.406,0.699,0.653,��쓌,11.3,��
2020/06/02,12:00,0.712,1.025,0.654,1.237,0.894,0.404,0.699,0.654,��쓌,12.2,��
2020/06/02,12:10,0.713,1.026,0.655,1.237,0.894,0.404,0.699,0.653,��쓌,11.9,��
2020/06/02,12:20,0.713,1.025,0.654,1.236,0.892,0.404,0.700,0.655,��쓌,12.5,��
2020/06/02,12:30,0.713,1.029,0.654,1.236,0.891,0.404,0.700,0.655,��쓌,11.1,��
2020/06/02,12:40,0.713,1.025,0.655,1.236,0.892,0.405,0.700,0.654,��쓌,10.5,��
2020/06/02,12:50,0.713,1.026,0.655,1.238,0.891,0.406,0.701,0.653,��,11.3,��
2020/06/02,13:00,0.713,1.026,0.654,1.238,0.893,0.406,0.702,0.654,��쓌,13.0,��
2020/06/02,13:10,0.712,1.025,0.656,1.240,0.896,0.406,0.700,0.652,��쓌,12.4,��
2020/06/02,13:20,0.711,1.025,0.654,1.238,0.895,0.406,0.701,0.655,��쓌,10.2,��
2020/06/02,13:30,0.711,1.023,0.655,1.239,0.887,0.406,0.699,0.653,��쓌,10.5,��
2020/06/02,13:40,0.712,1.026,0.654,1.238,0.887,0.406,0.699,0.653,��쓌,7.7,��
2020/06/02,13:50,0.713,1.023,0.655,1.238,0.885,0.404,0.700,0.655,��쓌,11.1,��
2020/06/02,14:00,0.712,1.022,0.657,1.238,0.891,0.405,0.700,0.653,��쓌,10.9,��
2020/06/02,14:10,0.713,1.022,0.654,1.240,0.894,0.405,0.698,0.654,��쓌,11.7,��
2020/06/02,14:20,0.712,1.024,0.656,1.239,0.894,0.406,0.700,0.654,��쓌,8.9,��
2020/06/02,14:30,0.715,1.022,0.652,1.238,0.896,0.406,0.700,0.653,��쓌,8.7,��
2020/06/02,14:40,0.712,1.022,0.654,1.239,0.893,0.407,0.701,0.654,��쓌,8.6,��
2020/06/02,14:50,0.713,1.023,0.654,1.239,0.894,0.406,0.700,0.655,��,7.3,��
2020/06/02,15:00,0.714,1.029,0.652,1.237,0.894,0.405,0.701,0.655,��,7.2,��
2020/06/02,15:10,0.714,1.023,0.655,1.239,0.893,0.405,0.699,0.652,��쓌,7.0,��
2020/06/02,15:20,0.715,1.025,0.654,1.239,0.892,0.404,0.699,0.653,��쓌,7.4,��
2020/06/02,15:30,0.711,1.026,0.655,1.239,0.894,0.406,0.700,0.654,��쓌,8.0,��
2020/06/02,15:40,0.713,1.028,0.655,1.240,0.891,0.402,0.698,0.654,��쓌,6.3,��
2020/06/02,15:50,0.712,1.027,0.654,1.240,0.895,0.404,0.699,0.653,��쓌,7.1,��
2020/06/02,16:00,0.711,1.029,0.654,1.236,0.894,0.404,0.699,0.652,�쓌,7.3,��
2020/06/02,16:10,0.712,1.028,0.654,1.239,0.893,0.404,0.699,0.654,��쓌,7.5,��
2020/06/02,16:20,0.713,1.026,0.654,1.237,0.894,0.406,0.699,0.653,��쓌,7.6,��
2020/06/02,16:30,0.713,1.029,0.652,1.240,0.893,0.404,0.699,0.653,��쓌,7.5,��
2020/06/02,16:40,0.712,1.027,0.654,1.240,0.894,0.405,0.699,0.654,��쓌,8.2,��
2020/06/02,16:50,0.713,1.026,0.653,1.240,0.891,0.402,0.699,0.654,��쓌,7.8,��
2020/06/02,17:00,0.715,1.025,0.652,1.238,0.894,0.405,0.698,0.653,��쓌,7.0,��
2020/06/02,17:10,0.712,1.028,0.654,1.239,0.892,0.403,0.698,0.654,��쓌,9.2,��
2020/06/02,17:20,0.714,1.031,0.654,1.241,0.892,0.404,0.699,0.654,��,9.0,��
2020/06/02,17:30,0.714,1.029,0.654,1.238,0.892,0.404,0.697,0.653,��,7.2,��
2020/06/02,17:40,0.712,1.030,0.653,1.239,0.893,0.405,0.698,0.654,��,8.2,��
2020/06/02,17:50,0.711,1.029,0.656,1.239,0.895,0.405,0.699,0.654,��쓌,8.6,��
2020/06/02,18:00,0.712,1.031,0.654,1.239,0.892,0.404,0.698,0.653,��,8.0,��
2020/06/02,18:10,0.712,1.028,0.655,1.238,0.891,0.404,0.699,0.653,��,9.5,��
2020/06/02,18:20,0.712,1.028,0.655,1.240,0.892,0.404,0.699,0.656,��,8.0,��
2020/06/02,18:30,0.710,1.028,0.655,1.240,0.895,0.404,0.702,0.655,��,8.9,��
2020/06/02,18:40,0.710,1.028,0.655,1.239,0.893,0.405,0.700,0.657,��,8.1,��
2020/06/02,18:50,0.711,1.030,0.655,1.240,0.893,0.406,0.700,0.656,��,7.1,��
2020/06/02,19:00,0.710,1.027,0.656,1.241,0.890,0.406,0.700,0.657,��,6.8,��
2020/06/02,19:10,0.711,1.027,0.654,1.241,0.891,0.406,0.699,0.656,��,7.6,��
2020/06/02,19:20,0.712,1.025,0.657,1.243,0.893,0.405,0.702,0.656,��,6.9,��
2020/06/02,19:30,0.712,1.029,0.657,1.242,0.891,0.406,0.701,0.655,��,6.4,��
2020/06/02,19:40,0.711,1.028,0.656,1.242,0.893,0.406,0.702,0.656,��,6.2,��
2020/06/02,19:50,0.711,1.026,0.656,1.242,0.892,0.404,0.700,0.656,��,6.4,��
2020/06/02,20:00,0.713,1.028,0.655,1.242,0.895,0.405,0.701,0.656,��,5.9,��
2020/06/02,20:10,0.712,1.028,0.657,1.244,0.894,0.406,0.701,0.656,��,4.6,��
2020/06/02,20:20,0.712,1.027,0.657,1.244,0.891,0.407,0.702,0.656,��,5.9,��
2020/06/02,20:30,0.711,1.029,0.657,1.241,0.893,0.405,0.701,0.655,��,5.2,��
2020/06/02,20:40,0.710,1.030,0.656,1.242,0.893,0.406,0.700,0.658,��,6.3,��
2020/06/02,20:50,0.711,1.028,0.656,1.243,0.893,0.405,0.700,0.655,��,5.1,��
2020/06/02,21:00,0.713,1.029,0.656,1.242,0.894,0.405,0.701,0.655,��,5.4,��
2020/06/02,21:10,0.711,1.027,0.656,1.244,0.894,0.405,0.702,0.657,��쐼,4.2,��
2020/06/02,21:20,0.713,1.030,0.655,1.244,0.897,0.406,0.701,0.656,��쐼,4.5,��
2020/06/02,21:30,0.711,1.029,0.656,1.244,0.895,0.405,0.701,0.655,��쐼,3.0,��
2020/06/02,21:40,0.712,1.027,0.657,1.242,0.896,0.406,0.701,0.657,�쐼,1.1,��
2020/06/02,21:50,0.712,1.029,0.656,1.241,0.894,0.407,0.699,0.656,��쐼,2.8,��
2020/06/02,22:00,0.713,1.030,0.657,1.242,0.892,0.407,0.701,0.656,��쐼,1.5,�L
2020/06/02,22:10,0.714,1.029,0.656,1.244,0.896,0.407,0.699,0.657,�쐼,1.1,�L
2020/06/02,22:20,0.711,1.029,0.657,1.243,0.897,0.407,0.700,0.657,�쓌,0.9,�L
2020/06/02,22:30,0.713,1.029,0.657,1.243,0.893,0.406,0.699,0.656,�쐼,0.6,�L
2020/06/02,22:40,0.714,1.029,0.656,1.243,0.894,0.408,0.700,0.656,��,0.8,��
2020/06/02,22:50,0.714,1.030,0.655,1.242,0.895,0.407,0.700,0.655,-,CALM,�L
2020/06/02,23:00,0.713,1.027,0.656,1.244,0.894,0.408,0.701,0.656,��,1.4,�L
2020/06/02,23:10,0.711,1.027,0.656,1.244,0.895,0.407,0.699,0.656,�쐼,2.3,�L
2020/06/02,23:20,0.713,1.026,0.656,1.245,0.893,0.407,0.698,0.653,-,CALM,�L
2020/06/02,23:30,0.713,1.020,0.654,1.240,0.888,0.407,0.691,0.646,��,2.8,�L
2020/06/02,23:40,0.708,1.016,0.653,1.236,0.880,0.403,0.684,0.639,��쓌,6.8,�L
2020/06/02,23:50,0.706,1.008,0.652,1.232,0.875,0.404,0.681,0.638,���k��,4.6,�L
